www.pogodaiklimat.ru
ПОГОДА в Абердине
Время
и дата
11:58 28.11
12:58 28.11
13:58 28.11
14:58 28.11
15:58 28.11
16:58 28.11
17:46 28.11
05:58 29.11
06:58 29.11
08:00 29.11
08:58 29.11
09:58 29.11
10:58 29.11
11:58 29.11
12:58 29.11
13:58 29.11
14:58 29.11
15:58 29.11
16:58 29.11
05:58 30.11
06:58 30.11
07:58 30.11
08:58 30.11
09:58 30.11
10:58 30.11
11:58 30.11
12:59 30.11
13:38 30.11
13:54 30.11
13:55 30.11
14:05 30.11
14:54 30.11
15:48 30.11
16:46 30.11
05:58 01.12
06:58 01.12
07:58 01.12
08:58 01.12
09:58 01.12
10:58 01.12
11:58 01.12
12:58 01.12
13:58 01.12
14:58 01.12
15:58 01.12
16:36 01.12
16:52 01.12
16:58 01.12
Ветер
(напр.,м/с)
Видим. Явления Облачность Т
(С)
Тd
(С)
f
(%)
Тe
(С)
Тes
(С)
Комфортность P
(гПа)
Po
(гПа)
Тmin
(С)
Tmax
(С)
R
(мм)
R24
(мм)
S
(см)
СЗ 5
{10}
16 км 5/5 1230 м +10.9 +2.1 55 +8 +10 1009.5 1006.9
С 4 16 км 8/8 1200 м +11.2 +2.6 55 +9 +10 1009.8 1007.2 +10.5 +13.0
СЗ 5 16 км 8/8 1200 м +11.4 +1.9 52 +9 +10 1010.5 1007.9
СЗ 3 16 км 10/10 1500 м +11.0 +1.9 53 +9 +9 1011.1 1008.6
СЗ 4 16 км 10/10 1500 м +10.7 +1.3 52 +9 +9 1009.9
СЗ 4 16 км 10/10 1500 м +9.9 0.0 50 +8 +8 1013.8 1011.3
СЗ 2 16 км 5/5 1500 м +9.0 0.0 53 +8 +8 1014.9 1012.3
штиль 0 16 км 5/5 1200 м -1.6 -2.1 96 -3 -3 1023.4 1020.7
штиль 0 16 км 8/8 1320 м -0.9 -1.3 97 -2 -2 1024.4 1021.7 -1.7 +5.9
штиль 0 16 км 10/10 1350 м +3.0 0.0 81 +2 +2 1025.1 1022.4
В 2 14 км 10/10 1350 м +4.0 +2.0 87 +1 +1 1025.4 1022.8
В 3 13 км 10/10 1350 м +5.8 +0.9 71 +3 +3 1026.1 1023.4
ЮВ 3 16 км 8/8 1500 м +7.2 +0.4 62 +5 +5 1026.4 1023.8
Ю 2 16 км 8/8 1500 м +8.4 +1.6 62 +7 +8 1025.7 1023.1
Ю 3 14 км 10/10 1500 м +8.2 +0.5 58 +6 +6 1025.1 1022.4 -1.7 +8.7
ЮВ 2 16 км 10/5 1500 m
[Ac]
+9.2 +1.3 58 +8 +9 1024.4 1021.7
ЮЗ 2 14 км 8/5 1800 m
[Ac]
+9.3 +1.1 57 +8 +9 1024.0 1021.4
ЮВ 3 11 км 8/0 6000 m
[Ac]
+9.0 +1.0 57 +7 +8 1024.0 1021.4
штиль 0 13 км 8/0 6000 m
[Ac]
+8.0 +1.0 61 +8 +8 1024.1 1021.4
ЮВ 2 14 км 10/10 1050 м +7.8 +5.4 85 +6 +6 1017.3 1014.6
штиль 0 14 км слабый дождь 10/10 450 m
[Ns]
+8.5 +6.3 86 +8 +8 1016.6 1014.0 +2.5 +8.5
штиль 0 8 км слабый дождь, дымка 10/10 270 m
[Ns]
+8.0 +7.3 95 +7 +7 1015.9 1013.3
штиль 0 3 км слабый дождь, дымка 10/10 210 m
[Ns]
+8.0 +8.0 100 +7 +7 1015.2 1012.6
Ю 3 3 км слабый дождь, дымка 10/10 210 m
[Ns]
+9.0 +9.0 100 +6 +6 1013.9 1011.3
Ю 7 8 км слабый дождь, дымка 10/10 210 m
[Ns]
+11.0 +11.0 100 +7 +7 1008.9
ЮЗ 8 5 км слабый дождь, дымка 10/10 210 m
[Ns]
+11.0 +11.0 100 +7 +7 1007.9
Ю 7 5 км слабый дождь, дымка 10/10 180 m
[Ns]
+11.0 +11.0 100 +7 +7 1006.5
11 км слабый дождь н/о +12.0 +11.0 94 +11 +11 1007.4 1004.8
Ю 7 5 км слабый дождь, дымка 10/10 180 m
[Ns]
+12.0 +11.0 94 +9 +9 1004.5
Ю 8 13 км н/о +12.0 +11.0 94 +9 +9 1007.1 1004.5
ЮЗ 8 5 км слабый дождь, дымка 10/10 180 m
[Ns]
+12.0 +11.0 94 +9 +9 1004.5
Ю 7 5 км слабый дождь, дымка 10/10 210 m
[Ns]
+12.0 +11.0 94 +9 +9 1003.5
ЮЗ 5 5 км слабый дождь, дымка 10/10 180 m
[Ns]
+13.0 +12.0 94 +11 +11 1004.2
З 3 16 км 10/10 900 м +12.0 +11.0 94 +10 +10 1006.2
З 4 16 км ясно +1.4 -7.8 50 -3 -3 1024.0 1021.4
З 4 16 км ясно +0.8 -8.3 51 -4 -4 1025.4 1022.8 +0.7 +2.7 9.9
З 2 16 км ясно +1.2 -7.8 51 -2 -2 1027.1 1024.4
З 3 16 км ясно +3.0 -7.8 45 0 0 1028.1 1025.5
СЗ 5
{8}
16 км 5/5 1500 м +3.9 -7.4 43 0 0 1028.8 1026.1
СЗ 5
{7}
16 км 2/2 1500 м +4.4 -6.9 44 0 +2 1028.8 1026.1
З 5 16 км 2/2 1500 м +4.8 -7.5 40 +1 +3 1029.1 1026.5
З 5 16 км ясно +5.5 -7.3 39 +2 +4 1029.1 1026.5 +0.5 +5.7
З 5 16 км ясно +6.0 -7.1 38 +2 +5 1029.5 1026.8
З 7
{8}
16 км ясно +5.8 -7.3 38 +1 +2 1029.8 1027.1
З 4 16 км ясно +5.2 -7.3 40 +2 +3 1030.5 1027.8
З 3 14 км ясно +4.0 -7.0 45 +1 +1 1031.2 1028.5
З 3 16 км ясно +4.0 -7.0 45 +1 +1 1031.2 1028.5
З 3 16 км ясно +3.7 -7.3 44 +1 +1 1031.5 1028.8
Местоположение метеостанции Phillips Army Air Field: широта 39.4667 долгота -76.1667 высота над уровнем моря 18 м.
В архиве по умолчанию представлена погода в Абердине за последние 1-2 суток. Обновление информации о фактической погоде в базе происходит ежечасно! Архивные данные за месяц целиком и за предыдущие месяцы Вы можете получить, выбрав интересующий диапазон дат из раскрывающегося списка и нажав кнопку "Ввод!".
Внимание! Архив погоды МЕТАР в базе сайта по станциям, не включенным в климатический монитор, хранится не более 60 дней. Нет смысла пытаться выбрать более раннюю дату.
*Определитесь, кто Вы:
Внимание! Время в таблицах - местное (без учета летнего времени). Для получения всемирного времени необходимо вычесть поправку, которая равна -5 ч.
Смотрите также архив погоды в соседних городах и на ближайших метеорологических станциях:
Партнеры нашего сайта:      
Пояснения к столбцам:
  • Ветер - указаны скорость ветра в м/с - средняя за 10 мин, порывы в срок и между сроками (в фигурных скобках) и направление, откуда дует ветер: С - северный,
  • СВ - северо-восточный, В - восточный, ЮВ - юго-восточный, Ю - южный, ЮЗ - юго-западный, З - западный, СЗ - северо-западный.
  • Видимость - горизонтальная дальность видимости в метрах или километрах. При видимости от 1 до 10 км при отсутствии осадков обычно наблюдается дымка, при ухудшении видимости до 1 км и менее - туман. В сухую погоду видимость может ухудшаться дымом, пылью или мглою.
  • Явления - указаны атмосферные явления, наблюдавшиеся в срок или в последний час перед сроком; фигурными скобками обозначены явления, наблюдавшиеся между сроками (за 1-3 часа до срока); квадратными скобками обозначены град или гололедные отложения с указанием их диаметра в мм.
  • Облачность - указаны через наклонную черту общая и нижняя облачность в баллах и высота нижней границы облаков в метрах; квадратными скобками обозначены формы облаков: Ci - перистые, Cs - перисто-слоистые, Cc - перисто-кучевые, Ac - высококучевые, As - высокослоистые, Sc - слоисто-кучевые, Ns - слоисто-дождевые, Cu - кучевые, Cb - кучево-дождевые. Подробнее классификацию облаков см. в Атласе облаков (PDF).
  • T - Температура воздуха - температура, измеренная на высоте 2 м над землей.
  • Td - Температура точки росы - температура, при понижении до которой содержащийся в воздухе водяной пар достигнет насыщения.
  • f - Относительная влажность воздуха - влажноcть воздуха, измеренная на высоте 2 м над землей.
  • Te - Эффективная температура - температура, которую ощущает одетый по сезону человек в тени. Характеристика душности погоды. При расчете учитывается влияние влажности воздуха и скорости ветра на теплоощущения человека.
  • Tes - Эффективная температура на солнце - температура, которую ощущает человек, с поправкой на солнечный нагрев. Характеристика знойности погоды. Зависит от высоты солнца над горизонтом, облачности и скорости ветра. Ночью, в пасмурную погоду, а также при ветре 12 м/с и более поправка равна нулю.
  • P - Атмосферное давление - приведенное к уровню моря атмосферное давление.
  • Po - Атмосферное давление - измеренное на уровне метеостанции атмосферное давление.
  • Tmin - Минимальная температура - минимум температуры воздуха на высоте 2 м над землей.
  • Tmax - Максимальная температура - максимум температуры воздуха на высоте 2 м над землей.
  • R - Количество осадков - Количество выпавших осадков за период времени, мм. При наведении курсора мыши на число - период времени, за который выпало указанное количество осадков.
  • R24 - Количество осадков - Количество выпавших осадков за 24 часа, мм.
  • S - Снежный покров - Высота снежного покрова, см. При наведении курсора мыши на число - состояние снежного покрова и степень покрытия местности в баллах.